1373328032338,0.863285
1373328092338,0.850132
1373328152338,0.867161
1373328212338,0.855321
1373328272338,0.855431
1373328332338,0.851212
1373328392338,0.855163
1373328452338,0.866786
1373328512338,0.847975
1373328572338,0.852336
1373328632338,0.856131
1373328692338,0.859984
1373328752338,0.848180
1373328812338,0.850608
1373328872338,0.852597
1373328932338,0.852875
1373328992338,0.848220
1373329052338,0.850528
1373329112338,0.853742
1373329172338,0.848200
1373329232338,0.852857
1373329292338,0.854169
1373329352338,0.848405
1373329412338,0.845298
1373329472338,0.858444
1373329532338,0.844869
1373329592338,0.856846
1373329652338,0.855757
1373329712338,0.848384
1373329772338,0.853213
1373329832338,0.857034
1373329892338,0.848979
1373329952338,0.852559
1373330012338,0.848003
1373330072338,0.847309
1373330132338,0.844964
1373330192338,0.851296
1373330252338,0.846176
1373330312338,0.848831
1373330372338,0.845034
1373330432338,0.849685
1373330492338,0.847341
1373330552338,0.849238
1373330612338,0.847113
1373330672338,0.849452
1373330732338,0.842496
1373330792338,0.852068
1373330852338,0.848491
1373330912338,0.850437
1373330972338,0.845597
1373331032338,0.849972
1373331092338,0.851913
1373331152338,0.839891
1373331212338,0.852292
1373331272338,0.846420
1373331332338,0.854632
1373331392338,0.847929
1373331452338,0.854731
1373331512338,0.845926
1373331572338,0.856367
1373331632348,0.856330
1373331692348,0.847750
1373331752348,0.845287
1373331812348,0.848225
1373331872348,0.851576
1373331932348,0.844008
1373331992348,0.843832
1373332052348,0.842308
1373332112348,0.853907
1373332172348,0.843584
1373332232348,0.851128
1373332292348,0.846048
1373332352348,0.849515
1373332412348,0.850552
1373332472348,0.846958
1373332532348,0.848809
1373332592348,0.843768
1373332652348,0.860813
1373332712348,0.853991
1373332772348,0.849008
1373332832348,0.856453
1373332892348,0.865218
1373332952348,0.862276
1373333012348,0.856253
1373333072348,0.869658
1373333132348,0.858786
1373333192348,0.858238
1373333252348,0.855034
1373333312348,0.855962
1373333372348,0.860528
1373333432348,0.851501
1373333492348,0.859261
1373333552348,0.859706
1373333612348,0.848184
1373333672348,0.860699
1373333732348,0.850125
1373333792348,0.848293
1373333852348,0.851205
1373333912348,0.855086
1373333972348,0.850607
1373334032348,0.845475
1373334092348,0.847811
1373334152348,0.856117
1373334212348,0.857797
1373334272348,0.848685
1373334332348,0.850520
1373334392348,0.847107
1373334452348,0.851296
1373334512348,0.849073
1373334572348,0.853339
1373334632348,0.847482
1373334692348,0.844706
1373334752348,0.849794
1373334812348,0.860262
1373334872348,0.849353
1373334932348,0.841829
1373334992348,0.844361
1373335052348,0.838785
1373335112348,0.846078
1373335172348,0.853012
1373335232357,0.850340
1373335292357,0.848493
1373335352357,0.844919
1373335412357,0.846010
1373335472357,0.852852
1373335532357,0.855859
1373335592357,0.839675
1373335652357,0.845710
1373335712357,0.856662
1373335772357,0.844868
1373335832357,0.845367
1373335892357,0.850101
1373335952357,0.847798
1373336012357,0.842297
1373336072357,0.851093
1373336132357,0.850056
1373336192357,0.849727
1373336252357,0.844791
1373336312357,0.851594
1373336372357,0.842406
1373336432357,0.848316
1373336492357,0.845419
1373336552357,0.846418
1373336612357,0.852144
1373336672357,0.847344
1373336732357,0.848634
1373336792357,0.849485
1373336852357,0.843790
1373336912357,0.847785
1373336972357,0.851918
1373337032357,0.846182
1373337092357,0.851134
1373337152357,0.841178
1373337212357,0.849904
1373337272357,0.848983
1373337332357,0.849877
1373337392357,0.844058
1373337452357,0.846205
1373337512357,0.849840
1373337572357,0.839939
1373337632357,0.847217
1373337692357,0.868403
1373337752357,0.888249
1373337812357,0.900502
1373337872357,0.899103
1373337932357,0.910005
1373337992357,0.916679
1373338052357,0.914512
1373338112357,0.908669
1373338172357,0.910010
1373338232357,0.920849
1373338292357,0.924370
1373338352357,0.926659
1373338412357,0.939498
1373338472357,0.921812
1373338532357,0.925235
1373338592357,0.933257
1373338652357,0.924807
1373338712357,0.925130
1373338772357,0.914075
1373338832367,0.903113
1373338892367,0.905579
1373338952367,0.894557
1373339012367,0.888822
1373339072367,0.889251
1373339132367,0.889518
1373339192367,0.881690
1373339252367,0.877529
1373339312367,0.871094
1373339372367,0.860750
1373339432367,0.870510
1373339492367,0.875088
1373340032367,0.858468
1373340092367,0.873330
1373340152367,0.861505
1373340212367,0.862976
1373340272367,0.868973
1373340332367,0.867498
1373340392367,0.873090
1373340452367,0.874877
1373340512367,0.880589
1373340572367,0.887249
1373340632367,0.881434
1373340692367,0.886080
1373340752367,0.884392
1373340812367,0.888905
1373340872367,0.893179
1373340932367,0.887821
1373340992367,0.890666
1373341052367,0.886668
1373341112367,0.887646
1373341172367,0.885003
1373341232367,0.882045
1373341292367,0.880125
1373341352367,0.879961
1373341412367,0.879578
1373341472367,0.883157
1373341532367,0.873293
1373341592367,0.869854
1373341652367,0.865032
1373341712367,0.865331
1373341772367,0.872809
1373341832367,0.860852
1373341892367,0.863800
1373341952367,0.859187
1373342012367,0.861740
1373342072367,0.860039
1373342132367,0.860543
1373342192367,0.855161
1373342252367,0.850275
1373342312367,0.854943
1373342372367,0.854877
1373342432376,0.852522
1373342492376,0.845248
1373342552376,0.848052
1373342612376,0.853892
1373342672376,0.855182
1373342732376,0.850366
1373342792376,0.846539
1373342852376,0.840338
1373342912376,0.846923
1373342972376,0.849886
1373343032376,0.845814
1373343092376,0.841337
1373343152376,0.850416
1373343212376,0.850045
1373343272376,0.852847
1373343332376,0.850340
1373343392376,0.847445
1373343452376,0.848488
1373343512376,0.845945
1373343572376,0.850916
1373343632376,0.850644
1373343692376,0.847075
1373343752376,0.847032
1373343812376,0.854582
1373343872376,0.856013
1373343932376,0.842107
1373343992376,0.852882
1373344052376,0.848595
1373344112376,0.853758
1373344172376,0.852168
1373344232376,0.848725
1373344292376,0.845948
1373344352376,0.850819
1373344412376,0.848170
1373344472376,0.847000
1373344532376,0.847901
1373344592376,0.851277
1373344652376,0.847528
1373344712376,0.856250
1373344772376,0.847815
1373344832376,0.851493
1373344892376,0.851055
1373344952376,0.846919
1373345012376,0.851857
1373345072376,0.852323
1373345132376,0.847261
1373345192376,0.850443
1373345252376,0.840924
1373345312376,0.843141
1373345372376,0.844621
1373345432376,0.848845
1373345492376,0.852022
1373345552376,0.852507
1373345612376,0.847643
1373345672376,0.856716
1373345732376,0.847671
1373345792376,0.851386
1373345852376,0.854262
1373345912376,0.860901
1373345972376,0.854026
1373346032385,0.862958
1373346092385,0.848857
1373346152385,0.848748
1373346212385,0.858180
1373346272385,0.857497
1373346332385,0.857125
1373346392385,0.852751
1373346452385,0.855148
1373346512385,0.856954
1373346572385,0.849845
1373346632385,0.853743
1373346692385,0.847550
1373346752385,0.858286
1373346812385,0.857225
1373346872385,0.854786
1373346932385,0.854326
1373346992385,0.853655
1373347052385,0.842284
1373347112385,0.856778
1373347172385,0.855058
1373347232385,0.854488
1373347292385,0.854410
1373347352385,0.854141
1373347412385,0.853547
1373347472385,0.848040
1373347532385,0.860176
1373347592385,0.855657
1373347652385,0.858392
1373347712385,0.848284
1373347772385,0.857259
1373347832385,0.853081
1373347892385,0.847697
1373347952385,0.846164
1373348012385,0.851879
1373348072385,0.846042
1373348132385,0.852297
1373348192385,0.847177
1373348252385,0.851414
1373348312385,0.844634
1373348372385,0.845340
1373348432385,0.849971
1373348492385,0.851636
1373348552385,0.845692
1373348612385,0.849526
1373348672385,0.855388
1373348732385,0.857547
1373348792385,0.853378
1373348852385,0.847844
1373348912385,0.853938
1373348972385,0.847226
1373349032385,0.860890
1373349092385,0.852410
1373349152385,0.853489
1373349212385,0.847914
1373349272385,0.852235
1373349332385,0.850395
1373349392385,0.853057
1373349452385,0.857216
1373349512385,0.845081
1373349572385,0.852796
1373349632394,0.849549
1373349692394,0.853751
1373349752394,0.845237
1373349812394,0.848799
1373349872394,0.847718
1373349932394,0.847759
1373349992394,0.851818
1373350052394,0.850967
1373350112394,0.852584
1373350172394,0.855051
1373350232394,0.847304
1373350292394,0.843039
1373350352394,0.847693
1373350412394,0.841062
1373350472394,0.854128
1373350532394,0.849203
1373350592394,0.848577
1373350652394,0.847297
1373350712394,0.845159
1373350772394,0.850500
1373350832394,0.848825
1373350892394,0.846721
1373350952394,0.856103
1373351012394,0.851936
1373351072394,0.847939
1373351132394,0.854791
1373351192394,0.849987
1373351252394,0.842693
1373351312394,0.848988
1373351372394,0.848864
1373351432394,0.850902
1373351492394,0.852077
1373351552394,0.851501
1373351612394,0.853064
1373351672394,0.852491
1373351732394,0.853522
1373351792394,0.850344
1373351852394,0.849396
1373351912394,0.854231
1373351972394,0.852501
1373352032394,0.852366
1373352092394,0.855771
1373352152394,0.849928
1373352212394,0.852574
1373352272394,0.858367
1373352332394,0.851795
1373352392394,0.848775
1373352452394,0.852895
1373352512394,0.842971
1373352572394,0.857136
1373352632394,0.853652
1373352692394,0.849967
1373352752394,0.849183
1373352812394,0.853898
1373352872394,0.852678
1373352932394,0.855427
1373352992394,0.859015
1373353052394,0.857506
1373353112394,0.864521
1373353172394,0.851822
1373353232403,0.855299
1373353292403,0.855589
1373353352403,0.865689
1373353412403,0.859339
1373353472403,0.860358
1373353532403,0.863186
1373353592403,0.869384
1373353652403,0.858967
1373353712403,0.862848
1373353772403,0.867674
1373353832403,0.862296
1373353892403,0.872802
1373353952403,0.872009
1373354012403,0.874134
1373354072403,0.870296
1373354132403,0.870697
1373354192403,0.873771
1373354252403,0.881888
1373354312403,0.882018
1373354372403,0.879810
1373354432403,0.885218
1373354492403,0.891117
1373354552403,0.891569
1373354612403,0.898300
1373354672403,0.907255
1373354732403,0.912525
1373354792403,0.913932
1373354852403,0.925930
1373354912403,0.926741
1373354972403,0.924847
1373355032403,0.940801
1373355092403,0.937827
1373355152403,0.946950
1373355212403,0.954506
1373355272403,0.960008
1373355332403,0.958570
1373355392403,0.972148
1373355452403,0.966214
1373355512403,0.977331
1373355572403,0.977001
1373355632403,0.988598
1373355692403,0.982435
1373355752403,0.983255
1373355812403,0.973501
1373355872403,0.982462
1373355932403,0.989491
1373355992403,0.971159
1373356052403,0.975688
1373356112403,0.978588
1373356172403,0.972945
1373356232403,0.980657
1373356292403,0.971157
1373356352403,0.959457
1373356412403,0.965306
1373356472403,0.961638
1373356532403,0.953688
1373356592403,0.958243
1373356652403,0.954297
1373356712403,0.944331
1373356772403,0.946424
1373356832412,0.933583
1373356892412,0.932799
1373356952412,0.925867
1373357012412,0.927025
1373357072412,0.932117
1373357132412,0.926831
1373357192412,0.911334
1373357252412,0.906794
1373357312412,0.915230
1373357372412,0.908633
1373357432412,0.906037
1373357492412,0.896916
1373357552412,0.893093
1373357612412,0.898070
1373357672412,0.890599
1373357732412,0.888704
1373357792412,0.884321
1373357852412,0.886677
1373357912412,0.879258
1373357972412,0.882468
1373358032412,0.882412
1373358092412,0.869124
1373358152412,0.876127
1373358212412,0.874530
1373358272412,0.872802
1373358332412,0.881257
1373358392412,0.874809
1373358452412,0.877756
1373358512412,0.871036
1373358572412,0.865497
1373358632412,0.875988
1373358692412,0.862158
1373358752412,0.862503
1373358812412,0.869620
1373358872412,0.856973
1373358932412,0.865501
1373358992412,0.868959
1373359052412,0.871797
1373359112412,0.869082
1373359172412,0.871602
1373359232412,0.856307
1373359292412,0.860497
1373359352412,0.856160
1373359412412,0.851443
1373359472412,0.858586
1373359532412,0.856700
1373359592412,0.856688
1373359652412,0.854210
1373359712412,0.854552
1373359772412,0.852813
1373359832412,0.852745
1373359892412,0.852489
1373359952412,0.849976
1373360012412,0.856419
1373360072412,0.846432
1373360132412,0.845592
1373360192412,0.850544
1373360252412,0.842961
1373360312412,0.844119
1373360372412,0.849063
1373360432421,0.853457
1373360492421,0.845072
1373360552421,0.841434
1373360612421,0.843061
1373360672421,0.848690
1373360732421,0.845064
1373360792421,0.847504
1373360852421,0.844112
1373360912421,0.849740
1373360972421,0.848264
1373361032421,0.850912
1373361092421,0.845125
1373361152421,0.846149
1373361212421,0.856108
1373361272421,0.843298
1373361332421,0.846673
1373361392421,0.851661
1373361452421,0.844890
1373361512421,0.849271
1373361572421,0.837867
1373361632421,0.849469
1373361692421,0.844300
1373361752421,0.844651
1373361812421,0.850230
1373361872421,0.841897
1373361932421,0.839859
1373361992421,0.847303
1373362052421,0.851102
1373362112421,0.849047
1373362172421,0.844297
1373362232421,0.838103
1373362292421,0.852223
1373362352421,0.845544
1373362412421,0.842940
1373362472421,0.842010
1373362532421,0.844772
1373362592421,0.838762
1373362652421,0.842541
1373362712421,0.851386
1373362772421,0.844802
1373362832421,0.842213
1373362892421,0.850100
1373362952421,0.847929
1373363012421,0.843324
1373363072421,0.845058
1373363132421,0.836883
1373363192421,0.840187
1373363252421,0.852258
1373363312421,0.852002
1373363372421,0.843263
1373363432421,0.841144
1373363492421,0.849848
1373363552421,0.843812
1373363612421,0.844798
1373363672421,0.845944
1373363732421,0.849860
1373363792421,0.853041
1373363852421,0.844972
1373363912421,0.844344
1373363972421,0.841803
1373364032430,0.842949
1373364092430,0.845834
1373364152430,0.843145
1373364212430,0.843548
1373364272430,0.846528
1373364332430,0.849897
1373364392430,0.851016
1373364452430,0.853181
1373364512430,0.848389
1373364572430,0.848691
1373364632430,0.849308
1373364692430,0.845051
1373364752430,0.849181
1373364812430,0.855130
1373364872430,0.852335
1373364932430,0.839863
1373364992430,0.854393
1373365052430,0.849361
1373365112430,0.848722
1373365172430,0.852284
1373365232430,0.845063
1373365292430,0.851466
1373365352430,0.854252
1373365412430,0.857597
1373365472430,0.856227
1373365532430,0.854629
1373365592430,0.860962
1373365652430,0.860054
1373365712430,0.866296
1373365772430,0.855518
1373365832430,0.859593
1373365892430,0.871142
1373365952430,0.872241
1373366012430,0.867322
1373366072430,0.866998
1373366132430,0.871074
1373366192430,0.862095
1373366252430,0.867486
1373366312430,0.872653
1373366372430,0.864657
1373366432430,0.872676
1373366492430,0.864493
1373366552430,0.865469
1373366612430,0.858889
1373366672430,0.862236
1373366732430,0.868166
1373366792430,0.856667
1373366852430,0.858265
1373366912430,0.854153
1373366972430,0.859365
1373367032430,0.854280
1373367092430,0.850978
1373367152430,0.859324
1373367212430,0.854596
1373367272430,0.858553
1373367332430,0.853041
1373367392430,0.849413
1373367452430,0.856418
1373367512430,0.848273
1373367572430,0.856388
1373367632439,0.847321
1373367692439,0.857513
1373367752439,0.857074
1373367812439,0.855745
1373367872439,0.857904
1373367932439,0.854365
1373367992439,0.852301
1373368052439,0.846766
1373368112439,0.844393
1373368172439,0.857677
1373368232439,0.858497
1373368292439,0.852866
1373368352439,0.855165
1373368412439,0.854444
1373368472439,0.841664
1373368532439,0.841332
1373368592439,0.849171
1373368652439,0.844954
1373368712439,0.855339
1373368772439,0.855886
1373368832439,0.851974
1373368892439,0.847723
1373368952439,0.857368
1373369012439,0.851411
1373369072439,0.854732
1373369132439,0.848819
1373369192439,0.849396
1373369252439,0.846041
1373369312439,0.849614
1373369372439,0.847266
1373369432439,0.855004
1373369492439,0.851683
1373369552439,0.855873
1373369612439,0.855970
1373369672439,0.852770
1373369732439,0.849767
1373369792439,0.848882
1373369852439,0.851632
1373369912439,0.850024
1373369972439,0.849688
1373370032439,0.850337
1373370092439,0.854086
1373370152439,0.857926
1373370212439,0.855589
1373370272439,0.859057
1373370332439,0.847645
1373370392439,0.853323
1373370452439,0.857868
1373370512439,0.856349
1373370572439,0.853478
1373370632439,0.849003
1373370692439,0.851513
1373370752439,0.859976
1373370812439,0.846842
1373370872439,0.857006
1373370932439,0.844617
1373370992439,0.850347
1373371052439,0.846263
1373371112439,0.859683
1373371172439,0.848946
1373371232448,0.849484
1373371292448,0.850184
1373371352448,0.857675
1373371412448,0.859116
1373371472448,0.857800
1373371532448,0.853474
1373371592448,0.852587
1373371652448,0.855410
1373371712448,0.850647
1373371772448,0.859094
1373371832448,0.855372
1373371892448,0.850635
1373371952448,0.854891
1373372012448,0.848340
1373372072448,0.864709
1373372132448,0.862166
1373372192448,0.849068
1373372252448,0.848868
1373372312448,0.853214
1373372372448,0.852823
1373372432448,0.852395
1373372492448,0.858000
1373372552448,0.848935
1373372612448,0.855439
1373372672448,0.850550
1373372732448,0.858867
1373372792448,0.861888
1373372852448,0.866127
1373372912448,0.859322
1373372972448,0.857689
1373373032448,0.857035
1373373092448,0.859914
1373373152448,0.862933
1373373212448,0.857019
1373373272448,0.860492
1373373332448,0.852923
1373373392448,0.850419
1373373452448,0.857146
1373373512448,0.857782
1373373572448,0.861973
1373373632448,0.861878
1373373692448,0.854655
1373373752448,0.859895
1373373812448,0.862254
1373373872448,0.862879
1373373932448,0.850515
1373373992448,0.852803
1373374052448,0.849112
1373374112448,0.852995
1373374172448,0.859425
1373374232448,0.852226
1373374292448,0.862436
1373374352448,0.850539
1373374412448,0.866305
1373374472448,0.855078
1373374532448,0.852335
1373374592448,0.860893
1373374652448,0.866393
1373374712448,0.852828
1373374772448,0.848355
1373374832457,0.863215
1373374892457,0.867504
1373374952457,0.858024
1373375012457,0.866735
1373375072457,0.861085
1373375132457,0.860212
1373375192457,0.855088
1373375252457,0.863042
1373375312457,0.861015
1373375372457,0.858633
1373375432457,0.859335
1373375492457,0.866883
1373375552457,0.871484
1373375612457,0.867479
1373375672457,0.873000
1373375732457,0.866229
1373375792457,0.872015
1373375852457,0.875269
1373375912457,0.864332
1373375972457,0.864674
1373376032457,0.867924
1373376092457,0.858543
1373376152457,0.864079
1373376212457,0.871984
1373376272457,0.861027
1373376332457,0.876213
1373376392457,0.868870
1373376452457,0.878175
1373376512457,0.877869
1373376572457,0.888620
1373376632457,0.893787
1373376692457,0.908506
1373376752457,0.917990
1373376812457,0.929458
1373376872457,0.931117
1373376932457,0.932264
1373376992457,0.933926
1373377052457,0.919389
1373377112457,0.910204
1373377172457,0.905357
1373377232457,0.896400
1373377292457,0.886320
1373377352457,0.891655
1373377412457,0.883683
1373377472457,0.887319
1373377532457,0.875984
1373377592457,0.873022
1373377652457,0.869967
1373377712457,0.877191
1373377772457,0.870197
1373377832457,0.874530
1373377892457,0.868910
1373377952457,0.870467
1373378012457,0.872605
1373378072457,0.865789
1373378132457,0.868171
1373378192457,0.873815
1373378252457,0.872482
1373378312457,0.867484
1373378372457,0.869628
1373378432466,0.874076
1373378492466,0.873858
1373378552466,0.869907
1373378612466,0.869649
1373378672466,0.870487
1373378732466,0.867537
1373378792466,0.871238
1373378852466,0.868574
1373378912466,0.873486
1373378972466,0.869456
1373379032466,0.870345
1373379092466,0.874433
1373379152466,0.864077
1373379212466,0.870004
1373379272466,0.872525
1373379332466,0.875836
1373379392466,0.878361
1373379452466,0.880926
1373379512466,0.872901
1373379572466,0.878921
1373379632466,0.870102
1373379692466,0.876867
1373379752466,0.884749
1373379812466,0.878855
1373379872466,0.881146
1373379932466,0.877258
1373379992466,0.880597
1373380052466,0.884588
1373380112466,0.875395
1373380172466,0.877401
1373380232466,0.879089
1373380292466,0.882661
1373380352466,0.879770
1373380412466,0.885855
1373380472466,0.878509
1373380532466,0.879838
1373380592466,0.886240
1373380652466,0.888023
1373380712466,0.884755
1373380772466,0.881896
1373380832466,0.879653
1373380892466,0.881151
1373380952466,0.879583
1373381012466,0.881949
1373381072466,0.882667
1373381132466,0.879734
1373381192466,0.881358
1373381252466,0.881463
1373381312466,0.893653
1373381372466,0.887967
1373381432466,0.887159
1373381492466,0.888661
1373381552466,0.889338
1373381612466,0.888345
1373381672466,0.890348
1373381732466,0.883406
1373381792466,0.887609
1373381852466,0.883592
1373381912466,0.891778
1373381972466,0.884322
1373382032475,0.893341
1373382092475,0.896369
1373382152475,0.890929
1373382212475,0.883871
1373382272475,0.889835
1373382332475,0.892960
1373382392475,0.894926
1373382452475,0.892176
1373382512475,0.888312
1373382572475,0.894371
1373382632475,0.892782
1373382692475,0.885946
1373382752475,0.894221
1373382812475,0.888356
1373382872475,0.890788
1373382932475,0.888084
1373382992475,0.885190
1373383052475,0.887788
1373383112475,0.890109
1373383172475,0.902306
1373383232475,0.901173
1373383292475,0.889351
1373383352475,0.892072
1373383412475,0.895646
1373383472475,0.897368
1373383532475,0.902872
1373383592475,0.891459
1373383652475,0.891067
1373383712475,0.892225
1373383772475,0.886153
1373383832475,0.881073
1373383892475,0.898257
1373383952475,0.890623
1373384012475,0.892906
1373384072475,0.892900
1373384132475,0.895543
1373384192475,0.898510
1373384252475,0.887224
1373384312475,0.893571
1373384372475,0.890130
1373384432475,0.884869
1373384492475,0.881132
1373384552475,0.888192
1373384612475,0.888793
1373384672475,0.876061
1373384732475,0.884704
1373384792475,0.886901
1373384852475,0.890587
1373384912475,0.882277
1373384972475,0.894188
1373385032475,0.887613
1373385092475,0.888993
1373385152475,0.886498
1373385212475,0.885604
1373385272475,0.890741
1373385332475,0.887375
1373385392475,0.880022
1373385452475,0.890304
1373385512475,0.894867
1373385572475,0.880965
1373385632485,0.882240
1373385692485,0.882472
1373385752485,0.878673
1373385812485,0.886227
1373385872485,0.888515
1373385932485,0.877892
1373385992485,0.886086
1373386052485,0.884602
1373386112485,0.887747
1373386172485,0.889326
1373386232485,0.886735
1373386292485,0.887039
1373386352485,0.887768
1373386412485,0.880066
1373386472485,0.882578
1373386532485,0.884623
1373386592485,0.882073
1373386652485,0.880884
1373386712485,0.883532
1373386772485,0.885722
1373386832485,0.872119
1373386892485,0.890442
1373386952485,0.876132
1373387012485,0.884530
1373387072485,0.880008
1373387132485,0.878129
1373387192485,0.880673
1373387252485,0.883690
1373387312485,0.876335
1373387372485,0.894664
1373387432485,0.887617
1373387492485,0.885813
1373387552485,0.878644
1373387612485,0.881938
1373387672485,0.877315
1373387732485,0.873687
1373387792485,0.892365
1373387852485,0.871623
1373387912485,0.887524
1373387972485,0.883014
1373388032485,0.875628
1373388092485,0.879712
1373388152485,0.885896
1373388212485,0.879013
1373388272485,0.883365
1373388332485,0.880351
1373388392485,0.880431
1373388452485,0.880298
1373388512485,0.880939
1373388572485,0.887255
1373388632485,0.883003
1373388692485,0.878318
1373388752485,0.882721
1373388812485,0.883937
1373388872485,0.888089
1373388932485,0.879573
1373388992485,0.876705
1373389052485,0.874315
1373389112485,0.873585
1373389172485,0.883499
1373389232495,0.870745
1373389292495,0.881657
1373389352495,0.872061
1373389412495,0.876275
1373389472495,0.872135
1373389532495,0.882037
1373389592495,0.879992
1373389652495,0.880497
1373389712495,0.879330
1373389772495,0.883769
1373389832495,0.877958
1373389892495,0.880739
1373389952495,0.883801
1373390012495,0.885874
1373390072495,0.877063
1373390132495,0.878638
1373390192495,0.875800
1373390252495,0.871800
1373390312495,0.874543
1373390372495,0.875519
1373390432495,0.872030
1373390492495,0.877263
1373390552495,0.879748
1373390612495,0.871635
1373390672495,0.881893
1373390732495,0.880351
1373390792495,0.876609
1373390852495,0.879603
1373390912495,0.876891
1373390972495,0.871964
1373391032495,0.868932